Location: ?
(35.4214°N, 139.3011°E)
Time: 22:06:33
(UTC+00:00)

SL-16 R/B - Pass Details

Date: 14 July 2020
Orbit: 839 x 850 km, 71.0° (Epoch: 10 August)

Event Time Altitude Azimuth Distance (km) Brightness Sun altitude
Exits shadow 10:38:42 - 115° (ESE) 2,531 4.0 -7.9°
Reaches altitude 10° 10:39:25 10° 108° (ESE) 2,461 4.0 -8.0°
Maximum altitude 10:40:35 11° 96° (E) 2,419 4.0 -8.2°
Drops below altitude 10° 10:41:44 10° 84° (E) 2,466 4.2 -8.4°
Sets 10:46:32 0° 48° (NE) 3,411 5.2 -9.2°
